Weather History for Chicago Midway, IL

Change the Weather History Date:

Monday, July 29, 2013

  Actual Average Record
Temperature  
Mean Temperature 67 °F 76 °F  
Max Temperature 76 °F 84 °F 101 °F (1941)
Min Temperature 58 °F 68 °F 50 °F (1981)
Degree Days  
Heating Degree Days 0 0  
Month to date heating degree days 4 0  
Since 1 June heating degree days 40 31  
Since 1 July heating degree days 4 0  
Cooling Degree Days 2 11  
Month to date cooling degree days 303 317  
Year to date cooling degree days 590 601  
Since 1 June cooling degree days 484 527  
Growing Degree Days 16 (Base 50)    
Moisture  
Dew Point 53 °F    
Average Humidity 61    
Maximum Humidity 78    
Minimum Humidity 42    
Precipitation  
Precipitation 0.00 in 0.14 in 1.47 in (1953)
Month to date precipitation 0.95 3.72  
Year to date precipitation 21.82 22.27  
Sea Level Pressure  
Sea Level Pressure 30.11 in    
Wind  
Wind Speed 8 mph (North)    
Max Wind Speed 14 mph    
Max Gust Speed 17 mph    
Visibility 10 miles    
Events      
T = Trace of Precipitation, MM = Missing Value Source: NWS Daily Summary

Daily Weather History Graph

Daily Weather History Graph

Search for Another Location

Airport:

Trip Planner

Search our weather history database for the weather conditions in past years. The results will help you decide how hot, cold, wet, or windy it might be!

Date:

Astronomy

Jul. 29, 2013 Rise Set
Actual Time 5:42 AM CDT 8:12 PM CDT
Civil Twilight 5:10 AM CDT 8:43 PM CDT
Nautical Twilight 4:31 AM CDT 9:22 PM CDT
Astronomical Twilight 3:46 AM CDT 10:06 PM CDT
Moon No Moon Rise 1:31 PM CDT (7/29)
Length of Visible Light 15h 33m
Length of Day
14h 29m
Waning Gibbous, 50% of the Moon is Illuminated
Jul 29
Waning Gibbous
Jul 29
Last Quarter
Aug 6
New
Aug 14
First Quarter
Aug 20
Full

Hourly Weather History & Observations

Time (CDT) Temp. Dew Point Humidity Pressure Visibility Wind Dir Wind Speed Gust Speed Precip Events Conditions
12:51 AM 64.0 °F 48.9 °F 58% 30.02 in 10.0 mi West 9.2 mph - N/A   Overcast
1:51 AM 63.0 °F 48.9 °F 60% 30.02 in 10.0 mi WNW 6.9 mph - N/A   Overcast
2:51 AM 62.1 °F 50.0 °F 65% 30.03 in 10.0 mi West 6.9 mph - N/A   Scattered Clouds
3:51 AM 59.0 °F 50.0 °F 72% 30.03 in 10.0 mi WSW 6.9 mph - N/A   Partly Cloudy
4:51 AM 59.0 °F 50.0 °F 72% 30.04 in 10.0 mi West 8.1 mph - N/A   Partly Cloudy
5:51 AM 57.9 °F 50.0 °F 75% 30.06 in 10.0 mi West 5.8 mph - N/A   Partly Cloudy
6:51 AM 60.1 °F 51.1 °F 72% 30.09 in 10.0 mi WNW 6.9 mph - N/A   Partly Cloudy
7:51 AM 63.0 °F 51.1 °F 65% 30.09 in 10.0 mi NW 8.1 mph - N/A   Scattered Clouds
8:51 AM 66.0 °F 51.1 °F 59% 30.11 in 10.0 mi NW 8.1 mph - N/A   Scattered Clouds
9:51 AM 69.1 °F 51.1 °F 53% 30.12 in 10.0 mi NW 9.2 mph - N/A   Scattered Clouds
10:51 AM 72.0 °F 51.1 °F 48% 30.12 in 10.0 mi NW 10.4 mph - N/A   Scattered Clouds
11:51 AM 72.0 °F 51.1 °F 48% 30.12 in 10.0 mi West 5.8 mph - N/A   Mostly Cloudy
12:51 PM 73.9 °F 51.1 °F 45% 30.12 in 10.0 mi WNW 5.8 mph - N/A   Mostly Cloudy
1:51 PM 75.0 °F 52.0 °F 44% 30.12 in 10.0 mi NE 9.2 mph - N/A   Mostly Cloudy
2:51 PM 72.0 °F 54.0 °F 53% 30.11 in 10.0 mi ENE 5.8 mph - N/A   Mostly Cloudy
3:51 PM 71.1 °F 55.0 °F 57% 30.13 in 10.0 mi ENE 9.2 mph - N/A   Mostly Cloudy
4:51 PM 71.1 °F 55.9 °F 59% 30.14 in 10.0 mi ENE 10.4 mph - N/A   Mostly Cloudy
5:51 PM 71.1 °F 55.9 °F 59% 30.14 in 10.0 mi East 11.5 mph - N/A   Mostly Cloudy
6:51 PM 69.1 °F 55.9 °F 63% 30.14 in 10.0 mi ENE 10.4 mph - N/A   Mostly Cloudy
7:51 PM 66.9 °F 55.9 °F 68% 30.15 in 10.0 mi ENE 8.1 mph - N/A   Mostly Cloudy
8:51 PM 66.0 °F 55.9 °F 70% 30.16 in 10.0 mi East 9.2 mph - N/A   Mostly Cloudy
9:51 PM 66.0 °F 57.0 °F 73% 30.17 in 10.0 mi East 9.2 mph - N/A   Mostly Cloudy
10:51 PM 64.9 °F 57.0 °F 75% 30.17 in 10.0 mi East 4.6 mph - N/A   Mostly Cloudy
11:51 PM 64.0 °F 57.0 °F 78% 30.17 in 10.0 mi East 3.5 mph - N/A   Mostly Cloudy